Location: Peterborough
(44.3091°N, 78.3197°W)
Time: 06:37:14
(UTC-04:00)

Vanguard 2 - Pass Details

Date: 24 March 2023
Orbit: 552 x 2926 km, 32.9° (Epoch: 04 June)

Event Time Altitude Azimuth Distance (km) Brightness Sun altitude
Rises 04:17:10 0° 191° (S) 6,657 - -29.7°
Exits shadow 04:20:41 - 183° (S) 6,160 11.8 -29.1°
Reaches altitude 10° 04:24:02 10° 174° (S) 5,742 11.7 -28.7°
Maximum altitude 04:33:36 17° 141° (SE) 5,020 11.7 -27.2°
Drops below altitude 10° 04:42:24 10° 107° (ESE) 5,269 12.3 -25.9°
Sets 04:48:06 0° 90° (E) 5,916 13.0 -25.0°
